Tracking 29892 objects as of 21-Nov-2024
HD Live streaming from Space Station
objects crossing your sky now

COSMOS 1758

Track COSMOS 1758 now!
10-day predictions
COSMOS 1758 is classified as:


NORAD ID: 16791
Int'l Code: 1986-046A
Perigee: 509.9 km
Apogee: 533.2 km
Inclination: 82.5 °
Period: 94.9 minutes
Semi major axis: 6892 km
RCS: 7.362 m2 (large)
Launch date: June 12, 1986
Source: Commonwealth of Independent States (former USSR) (CIS)
Launch site: PLESETSK MISSILE AND SPACE COMPLEX (PKMTR)
Your satellite tracking list
Your tracking list is empty




NASA's NSSDC Master Catalog

Two Line Element Set (TLE):
1 16791U 86046A   24325.81029597  .00011292  00000-0  56510-3 0  9990
2 16791  82.4638 258.2292 0016908 179.0340 181.0929 15.17167376 94002
Source of the keplerian elements: AFSPC